• Join FlightAware (Why Join?)
  • Login
  • US Flag 
03:21AM EDT


 

Airport Tracker/Info


-or-


 

Live Flight TrackerFlight Track Log ✈ ELJ604 ✈ 04-May-2013 ✈ KMDW - KMGY

Flight Track Log - Related Links

Times and Time Zones

All times are in EDT time to prevent confusion due to time zone crossing. See the ELJ604 flight status page for this flight to view local times or setup timezone preferences in your user account.

Time Position Orientation Groundspeed Altitude Reporting Facility
EDT Latitude Longitude Course Direction KTS MPH feet Rate Location/Type
03:46PM 41.8000 -87.7333 90° East 178 205 2,000  Level Chicago TRACON
03:48PM 41.8058 -87.5983 87° East 233 268 4,500 2,820 Climbing Chicago Center
03:49PM 41.7972 -87.5006 97° East 261 300 9,200 4,200 Climbing Chicago Center
03:50PM 41.7889 -87.4003 96° East 269 310 13,200 3,660 Climbing Chicago Center
03:51PM 41.7806 -87.2914 96° East 288 331 16,800 3,120 Climbing Chicago Center
03:52PM 41.7500 -86.8572 90° East  Level FlightAware Approximate
03:52PM 41.7733 -87.1819 95° East 294 338 19,700  Level Chicago Center
03:53PM 41.7622 -87.0625 97° East 319 367 21,700 1,560 Climbing Chicago Center
03:54PM 41.7647 -86.9017 89° East 360 414 23,000 900 Climbing Chicago Center
03:55PM 41.7647 -86.7522 90° East 396 456 23,600 960 Climbing Chicago Center
03:56PM 41.7667 -86.5972 89° East 406 467 25,000 660 Climbing Chicago Center
03:57PM 41.7531 -86.4447 97° East 422 486 25,000  Level Chicago Center
03:58PM 41.6919 -86.3183 123° Southeast 405 466 25,000  Level Chicago Center
03:59PM 41.6214 -86.2003 129° Southeast 407 468 25,000  Level Chicago Center
04:00PM 41.5522 -86.0847 129° Southeast 402 463 25,000  Level Chicago Center
04:02PM 41.4142 -85.8539 129° Southeast 395 455 25,000 -120 Level Indianapolis Center
04:03PM 41.3444 -85.7381 129° Southeast 400 460 24,700 -840 Descending Indianapolis Center
04:04PM 41.2722 -85.6183 129° Southeast 411 473 23,400 -840 Descending Indianapolis Center
04:05PM 41.1989 -85.4986 129° Southeast 417 480 23,000 -180 Descending Indianapolis Center
04:06PM 41.1172 -85.3664 129° Southeast 407 468 23,000 -240 Level Chicago Center
04:07PM 41.0367 -85.2333 129° Southeast 393 452 22,500 -840 Descending Chicago Center
04:08PM 40.9683 -85.1231 129° Southeast 390 449 21,300 -1,500 Descending Chicago Center
04:09PM 40.9036 -85.0175 129° Southeast 379 436 19,400 -1,860 Descending Chicago Center
04:10PM 40.8439 -84.9231 130° Southeast 350 403 17,500 -1,920 Descending Chicago Center
04:11PM 40.7831 -84.8250 129° Southeast 345 397 15,500 -1,260 Descending Chicago Center
04:13PM 40.7233 -84.7278 129° Southeast 343 395 15,000 -300 Descending Chicago Center
04:14PM 40.6478 -84.6108 130° Southeast 349 402 15,000 -360 Level Chicago Center
04:14PM 40.6036 -84.5417 130° Southeast 349 402 14,400 -1,140 Descending Indianapolis Center
04:15PM 40.5656 -84.4992 140° Southeast 341 392 13,600 -1,500 Descending Indianapolis Center
04:15PM 40.5247 -84.4856 166° South 340 391 12,900 -1,500 Descending Indianapolis Center
04:16PM 40.4775 -84.4731 169° South 320 368 12,100 -1,500 Descending Indianapolis Center
04:16PM 40.4381 -84.4600 166° South 321 369 11,400 -1,500 Descending Indianapolis Center
04:17PM 40.3936 -84.4478 168° South 310 357 10,600 -1,380 Descending Indianapolis Center
04:17PM 40.3542 -84.4383 170° South 310 357 10,000 -540 Descending Indianapolis Center
04:18PM 40.3117 -84.4256 167° South 301 346 10,100  Climbing Indianapolis Center
04:18PM 40.2700 -84.4139 168° South 307 353 10,000  Descending Indianapolis Center
04:19PM 40.2275 -84.4033 169° South 304 350 10,100 60 Climbing Indianapolis Center
04:20PM 40.1531 -84.3658 159° South 263 303 10,100 -240 Level Indianapolis Center
04:20PM 40.1236 -84.3489 156° South 272 313 9,800 -1,200 Descending Indianapolis Center
04:21PM 40.0869 -84.3267 155° Southeast 251 289 8,900 -1,680 Descending Indianapolis Center
04:21PM 40.0589 -84.3108 157° South 258 297 8,100 -1,680 Descending Indianapolis Center
04:22PM 40.0208 -84.2878 155° Southeast 259 298 7,200 -1,140 Descending Indianapolis Center
04:23PM 39.9817 -84.2633 154° Southeast 261 300 7,000 -120 Descending Indianapolis Center
04:23PM 39.9547 -84.2492 158° South 261 300 7,100 -420 Climbing Indianapolis Center
04:24PM 39.9169 -84.2258 155° Southeast 256 295 6,600 -1,020 Descending Indianapolis Center
04:24PM 39.8947 -84.2111 153° Southeast 230 265 6,100 -1,020 Descending Indianapolis Center
04:25PM 39.8611 -84.1914 156° South 238 274 5,600 -1,800 Descending Indianapolis Center
04:26PM 39.8064 -84.1586 155° Southeast 224 258 3,200 -1,740 Descending Indianapolis Center
04:26PM 39.7789 -84.1414 154° Southeast 227 261 3,000 -240 Descending Indianapolis Center
04:27PM 39.7525 -84.1406 179° South 211 243 3,000 60 Level Indianapolis Center
04:27PM 39.7233 -84.1531 198° South 185 213 3,100  Climbing Indianapolis Center
04:28PM 39.7025 -84.1650 204° Southwest 198 228 3,000 -240 Descending Indianapolis Center
04:28PM 39.6794 -84.1772 202° Southwest 173 199 2,900 -120 Descending Indianapolis Center
04:29PM 39.6569 -84.1889 202° Southwest 187 215 2,900  Level Indianapolis Center
04:31PM 39.5833 -84.2167 201° Southwest  Level FlightAware Approximate
04:38PM 39.5890 -84.2249 201° Southwest  Level Estimated
04:39PM 39.5890 -84.2249 201° Southwest  Level Estimated